Regional Weather Roundup
Issued by NWS

Home | Current Version | Previous Version | Text Only | Print | Product List | Glossary On
Versions: 1 2 3 4 5 6 7 8 9 10 11 12 13 14 15 16 17 18 19 20 21 22 23 24 25 26 27 28 29 30 31 32 33 34 35 36 37 38 39 40 41 42 43 44 45 46 47 48 49 50
387
ASUS44 KFWD 232310
RWRTX
NORTH TEXAS HOURLY WEATHER ROUNDUP
NATIONAL WEATHER SERVICE FORT WORTH TX
600 PM CDT SUN JUL 23 2017

NOTE: "FAIR" INDICATES FEW OR NO CLOUDS BELOW 12,000 FEET WITH NO
SIGNIFICANT WEATHER AND/OR OBSTRUCTIONS TO VISIBILITY.

TXZ118-119-240000-
DALLAS/FORT WORTH METROPLEX

CITY           SKY/WX    TMP DP  RH WIND       PRES   REMARKS
DFW AIRPORT    PTSUNNY   99  72  41 S15G24    29.78F HX 108
DALLAS LOVE    FAIR      95  70  44 S12       29.80S HX 101
FTW MEACHAM    FAIR     100  69  36 SE12      29.79F HX 106
DAL-EXECUTIVE  FAIR      93  71  48 S8        29.81S HX 100
FTW-ALLIANCE   PTSUNNY   99  69  37 S9G18     29.78F HX 105
FTW-SPINKS     SUNNY     95  70  43 SE17      29.84R HX 101
ARLINGTON      PTSUNNY   95  72  47 S15       29.81S HX 103
GRAND PRAIRIE  SUNNY     95  68  41 SE9G16    29.82S HX  99
ADDISON        SUNNY     95  68  41 S6        29.80F HX  99
MESQUITE       MOSUNNY   99  70  39 S9        29.81S HX 105
LANCASTER      FAIR      96  67  39 S14       29.83R HX 100
$$

TXZ091>094-102>105-117-120-121-131>134-240000-
NORTH CENTRAL TEXAS

CITY           SKY/WX    TMP DP  RH WIND       PRES   REMARKS
SHRMAN/DENISON FAIR      91  70  49 W7        29.80S HX  97
GAINESVILLE    FAIR      83  72  68 CALM      29.81F
BOWIE          FAIR      96  72  45 SE3       29.80F HX 105
BRIDGEPORT     FAIR     100  64  31 SE9       29.81F HX 102
DECATUR        FAIR      99  67  35 SE10      29.81F HX 103
DENTON         FAIR      99  69  37 S12       29.77F HX 105
MCKINNEY       FAIR      98  72  42 SE14      29.78F HX 107
BONHAM         FAIR      97  72  44 S8        29.79F HX 105
GREENVILLE     FAIR      95  72  46 S12       29.81F HX 103
ROCKWALL       FAIR      97  73  45 SE7       29.80F HX 106
TERRELL        FAIR      96  71  44 SE12      29.82S HX 103
WAXAHACHIE     FAIR      90  71  53 S13       29.84S HX  96
CLEBURNE       FAIR      95  72  46 SE12G20   29.85S HX 103
GRANBURY       FAIR     100  65  31 SE9       29.83S HX 103
$$

TXZ083>090-098>101-113>116-127>130-139>142-154-155-240000-
WESTERN NORTH TEXAS

CITY           SKY/WX    TMP DP  RH WIND       PRES   REMARKS
WICHITA FALLS  FAIR     100  64  30 SE10      29.78F HX 102
WF-KICKAPOO    FAIR     102  64  29 E3        29.80F HX 105
VERNON         FAIR     102  52  18 E6        29.81S HX 100
ABILENE        FAIR      89  61  38 S20       29.88S
ABILENE-DYESS  FAIR      94  64  37 SE23G33   29.86R HX  96
GRAHAM         PTSUNNY   96  66  37 S15G24    29.81R HX  99
BRECKENRIDGE   PTSUNNY   91  66  44 S14       29.86R HX  94
CISCO          FAIR      84  70  61 S9        29.91S
EASTLAND       FAIR      82  74  75 S7        29.89R
RANGER         PTSUNNY   85  71  61 S8        29.89R HX  90
MINERAL WELLS  FAIR      95  66  38 W13       29.82R HX  98
STEPHENVILLE   FAIR      92  68  44 S7        29.90R HX  96
COMANCHE       FAIR      89  69  50 SW7       29.90R HX  93
BROWNWOOD      FAIR      84  64  51 SW13      29.92R
COLEMAN        TSTM      73  63  72 SE18      29.94F
$$

TXZ143>147-156>162-174-175-240000-
CENTRAL TEXAS

CITY           SKY/WX    TMP DP  RH WIND       PRES   REMARKS
WACO           FAIR      96  71  44 W6        29.83R HX 103
WACO-TSTC      SUNNY     99  68  36 W6        29.82S HX 104
WACO-MCGREGOR  FAIR      96  69  41 S10       29.84R HX 102
CORSICANA      FAIR      98  69  38 S12       29.83S HX 104
MEXIA          PTSUNNY   96  68  40 SE8G18    29.83S HX 100
HEARNE         FAIR      98  69  39 SE9       29.84S HX 103
CAMERON        FAIR     100  65  31 SW6       29.82S HX 104
TEMPLE         PTSUNNY   84  74  71 W9        29.87S HX  91
KILLEEN        FAIR      90  67  47 SW13G21   29.88R HX  93
KILLEEN-SKYLRK TSTM      86  75  69 NE9       29.89R HX  95
FORT HOOD      CLOUDY    82  72  71 E18G25    29.86R THUNDER
HAMILTON       FAIR      91  69  49 SW14      29.90S HX  95
LAMPASAS       FAIR      82  72  73 SW10      29.90R
$$

TXZ095>097-106>112-122>126-135>138-148>153-164>167-240000-
EAST TEXAS

CITY           SKY/WX    TMP DP  RH WIND       PRES   REMARKS
PARIS            N/A     97  76  50 S13         N/A  HX 110
SULPHUR SPRNGS FAIR      87  71  59 S10       29.84F HX  93
MOUNT PLEASANT FAIR      88  72  58 S8        29.85S HX  95
GILMER         FAIR      82  71  68 SE7       29.85F
MINEOLA        FAIR      79  72  78 E3        29.84F
TYLER          LGT RAIN  81  77  88 SE7       29.85S
LONGVIEW       FAIR      77  74  90 SW8       29.86F
MARSHALL         N/A     80  73  79 S7        29.89F
ATHENS         FAIR      95  70  43 MISG      29.81F HX 101
PALESTINE      FAIR      95  72  47 SE7       29.85S HX 104
JACKSONVILLE   FAIR      95  73  49 SW12      29.88S THUNDER HX 105
HENDERSON      HVY RAIN  76  72  86 NW6       29.87F
CENTER         FOG       84  82  93 W3        29.90R VSB 1/2 HX 100
NACOGDOCHES    CLOUDY    90  75  62 SE10      29.83S THUNDER HX 100
LUFKIN         FAIR      83  73  72 S8        29.87S
$$

SUPPLEMENTAL OBSERVATIONS (NWS FORT WORTH AREA)

CITY           SKY/WX    TMP DP  RH WIND       PRES   REMARKS
CADDO GRASSLND   N/A     99  73  44 SE5         N/A  HX 109
PAT MAYSE LAKE   N/A     97  73  46 SE7         N/A  HX 107
GREENVILLE       N/A     91  73  55 SE12        N/A  HX 100
CEDAR HILL       N/A     95  70  43 S7G15       N/A  HX 101
LBJ GRASSLAND    N/A    100  66  32 SE9         N/A  HX 104
POSSUM KINGDOM   N/A     88  68  51 S17G35      N/A  HX  91
GRANBURY         N/A    100  66  32 SE12        N/A  HX 104
TEMPLE           N/A     88  66  48 SW6G15      N/A  HX  90
$$

SUPPLEMENTAL OBSERVATIONS (NWS NORMAN AREA)

CITY           SKY/WX    TMP DP  RH WIND       PRES   REMARKS
GOODLETT         N/A     96  57  27 SW10      29.84S HX  94
ODELL            N/A    100  62  28 S5        29.82F HX 101
CROWELL          N/A     96  62  31 S10       29.84S HX  97
KNOX CITY        N/A     89  66  46 SW9G23    29.86F HX  92
SEYMOUR          N/A     96  58  28 SE6       29.82F HX  95
MILLERS CREEK    N/A     95  64  36 E6G15       N/A  HX  97
$$

SUPPLEMENTAL OBSERVATIONS (NWS SAN ANGELO AREA)

CITY           SKY/WX    TMP DP  RH WIND       PRES   REMARKS
WEINERT          N/A     94  63  35 E12       29.85R HX  95
HASKELL          N/A     89  62  40 NW25G33   29.87R
THROCKMORTON     N/A     92  70  48 N2        29.84F HX  97
STAMFORD         N/A     97  64  33 SE17      29.85S HX  98
CLYDE            N/A     87  67  50 S17       29.92R HX  90
HAMBY            N/A     93  55  27 S17G23      N/A  HX  91
IVIE RESERVOIR   N/A     86  64  48 E14G22      N/A
COLORADO BEND    N/A     81  66  61 S10         N/A
$$

SUPPLEMENTAL OBSERVATIONS (NWS SHREVEPORT AREA)

CITY           SKY/WX    TMP DP  RH WIND       PRES   REMARKS
CLARKSVILLE      N/A     93  73  52 S13         N/A  HX 102
TEXARKANA        N/A     97  77  52 CALM        N/A  HX 112
LINDEN           N/A     82  70  65 S2G13       N/A
GILMER           N/A     82  70  65 SE5         N/A
HENDERSON        N/A     77  72  83 N7G20       N/A
LUFKIN           N/A     90  77  66 MISG        N/A  HX 102
N SABINE NF      N/A     77  73  88 MISG        N/A
S SABINE NF      N/A     79  73  83 E2          N/A
$$

SUPPLEMENTAL OBSERVATIONS ARE A COLLECTION OF AUTOMATED INSTRUMENTS
THAT ARE MAINTAINED BY A VARIETY OF FEDERAL AND STATE AGENCIES.
CERTAIN ELEMENTS...SUCH AS HUMIDITY VALUES AND SUSTAINED WIND
SPEEDS...MAY BE APPROXIMATED.





USA.gov is the U.S. government's official web portal to all federal, state and local government web resources and services.